Weather History for PATC - February, 2014

Change the Weather History Date:

Wednesday, February 19, 2014

  Actual Average Record
Temperature  
Mean Temperature 0 °F -  
Max Temperature 3 °F 5 °F 27 °F (2001)
Min Temperature -2 °F -4 °F -20 °F (1997)
Degree Days  
Heating Degree Days 64    
Moisture  
Dew Point -1 °F    
Average Humidity 88    
Maximum Humidity 92    
Minimum Humidity 85    
Precipitation  
Precipitation 0.00 in - - ()
Sea Level Pressure  
Sea Level Pressure 29.90 in    
Wind  
Wind Speed - (North)    
Max Wind Speed -    
Max Gust Speed -    
Visibility 1 miles    
Events Fog , Snow    
Averages and records for this station are not official NWS values.
T = Trace of Precipitation, MM = Missing Value Source: NWS Daily Summary

Daily Weather History Graph

Daily Weather History Graph

Search for Another Location

Airport or City:

Trip Planner

Search our weather history database for the weather conditions in past years. The results will help you decide how hot, cold, wet, or windy it might be!

Date:

Astronomy

Feb. 19, 2014 Rise Set
Actual Time 9:58 AM AKST 6:53 PM AKST
Civil Twilight 9:05 AM AKST 7:46 PM AKST
Nautical Twilight 8:07 AM AKST 8:45 PM AKST
Astronomical Twilight 7:08 AM AKST 9:44 PM AKST
Moon 12:50 AM AKST (2/19) 10:11 AM AKST (2/19)
Length of Visible Light 10h 40m
Length of Day
8h 54m
Waning Gibbous, 78% of the Moon is Illuminated
Feb 19
Waning Gibbous
Feb 22
Last Quarter
Feb 28
New
Mar 8
First Quarter
Mar 16
Full

Hourly Weather History & Observations

Time (AKST) Temp. Dew Point Humidity Pressure Visibility Wind Dir Wind Speed Gust Speed Precip Events Conditions
12:19 AM 3.2 °F 1.4 °F 92% 29.83 in 0.2 mi North - - N/A Snow Light Snow
12:55 AM 3.0 °F 0.5 °F 89% 29.85 in 0.2 mi North - - 0.00 in Snow Heavy Snow
1:19 AM 3.2 °F -0.4 °F 85% 29.86 in 0.2 mi North - - N/A Snow Light Snow
1:39 AM 3.2 °F -0.4 °F 85% 29.86 in 0.2 mi North - - N/A Snow Light Snow
1:55 AM 2.1 °F -0.6 °F 88% 29.84 in 0.2 mi North - - 0.00 in Snow Light Snow
3:19 AM 1.4 °F -2.2 °F 85% 29.83 in 0.5 mi North - - N/A Snow Light Snow
3:39 AM 1.4 °F -2.2 °F 85% 29.80 in 0.2 mi North - - N/A Snow Light Snow
3:55 AM 1.2 °F -1.5 °F 88% 29.82 in 0.2 mi North - - 0.00 in Snow Light Snow
4:39 AM 1.4 °F -0.4 °F 92% 29.83 in 0.2 mi North - - N/A Snow Heavy Snow
4:55 AM 1.9 °F -0.4 °F 90% 29.83 in 0.2 mi North - - 0.00 in Snow Light Snow
5:19 AM 3.2 °F -0.4 °F 85% 29.83 in 0.2 mi North - - N/A Snow Light Snow
5:55 AM 2.7 °F 0.1 °F 89% 29.83 in 0.2 mi North - - 0.00 in Snow Light Snow
6:19 AM 3.2 °F -0.4 °F 85% 29.84 in 0.2 mi North - - N/A Snow Heavy Snow
6:55 AM 2.3 °F -0.4 °F 88% 29.84 in 0.8 mi North - - 0.00 in Snow Light Snow
7:55 AM 1.9 °F -0.8 °F 88% 29.85 in 0.5 mi North - - 0.00 in Snow Light Snow
7:59 AM 1.4 °F -0.4 °F 92% 29.84 in 0.8 mi North - - N/A Snow Light Snow
8:39 AM 1.4 °F -0.4 °F 92% 29.84 in 1.5 mi North - - N/A Snow Light Snow
8:55 AM 0.9 °F -2.0 °F 88% 29.85 in 5.0 mi North - - 0.00 in Snow Light Snow
8:59 AM 1.4 °F -2.2 °F 85% 29.86 in 2.5 mi North - - N/A Snow Light Snow Showers
9:20 AM -0.4 °F -2.2 °F 92% 29.83 in 3.0 mi North - - N/A Snow Light Snow Showers
9:40 AM 1.4 °F -2.2 °F 85% 29.82 in 5.0 mi North - - N/A   Mostly Cloudy
9:55 AM 1.0 °F -1.7 °F 88% 29.83 in 1.2 mi North - - 0.00 in Snow Light Snow Showers
10:20 AM 1.4 °F -0.4 °F 92% 29.85 in 0.8 mi North - - N/A Snow Light Snow Showers
10:55 AM 1.8 °F -0.9 °F 88% 29.85 in 0.8 mi North - - 0.00 in Snow Light Snow
11:20 AM 1.4 °F -0.4 °F 92% 29.85 in 1.0 mi North - - N/A Snow Light Snow
11:40 AM 1.4 °F -0.4 °F 92% 29.87 in 2.5 mi North - - N/A Snow Light Snow
11:55 AM 1.9 °F -0.9 °F 88% 29.89 in 1.5 mi North - - 0.00 in Snow Light Snow
12:00 PM - - N/A% - - North - - N/A   Unknown
12:40 PM 1.4 °F -0.4 °F 92% 29.91 in 0.8 mi North - - N/A Snow Light Snow
12:55 PM 1.8 °F -1.1 °F 88% 29.91 in 1.5 mi North - - 0.00 in Snow Light Snow
1:00 PM 1.4 °F -0.4 °F 92% 29.92 in 1.2 mi North - - N/A Snow Light Snow
1:20 PM 1.4 °F -0.4 °F 92% 29.92 in 0.5 mi North - - N/A Fog , Snow Light Snow
1:40 PM 1.4 °F -0.4 °F 92% 29.93 in 1.2 mi North - - N/A Snow Light Snow
1:55 PM 2.3 °F -0.8 °F 87% 29.92 in 1.0 mi North - - 0.00 in Snow Light Snow
2:40 PM 3.2 °F -0.4 °F 85% 29.94 in 0.8 mi North - - N/A Snow Light Snow
2:55 PM 2.5 °F -0.8 °F 86% 29.94 in 1.0 mi North - - 0.00 in Snow Light Snow
3:20 PM 3.2 °F -0.4 °F 85% 29.95 in 0.5 mi North - - N/A Snow Light Snow
3:40 PM 3.2 °F -0.4 °F 85% 29.94 in 0.2 mi North - - N/A Snow Snow
3:55 PM 2.7 °F -0.0 °F 88% 29.95 in 0.5 mi North - - 0.00 in Snow Light Snow
4:00 PM 3.2 °F -0.4 °F 85% 29.95 in 0.2 mi North - - N/A Snow Light Snow
4:20 PM 3.2 °F -0.4 °F 85% 29.95 in 0.2 mi North - - N/A Snow Snow
4:40 PM 3.2 °F -0.4 °F 85% 29.96 in 0.2 mi North - - N/A Snow Light Snow
4:55 PM 2.7 °F -0.0 °F 88% 29.95 in 0.2 mi North - - 0.00 in Snow Light Snow
5:55 PM 1.9 °F -0.9 °F 88% 29.94 in 0.2 mi North - - 0.00 in Snow Light Snow
6:55 PM 0.9 °F -2.0 °F 88% 29.96 in 0.5 mi North - - 0.00 in Snow Light Snow
7:20 PM -0.4 °F -2.2 °F 92% 29.96 in 0.2 mi North - - N/A Snow Light Snow
7:40 PM -0.4 °F -2.2 °F 92% 29.98 in 0.5 mi North - - N/A Snow Light Snow
7:55 PM -0.0 °F -2.7 °F 88% 29.99 in 0.5 mi North - - 0.00 in Snow Light Snow
8:55 PM -1.3 °F -4.4 °F 87% 29.99 in 0.8 mi North - - 0.00 in Snow Light Snow
9:55 PM -2.0 °F -5.4 °F 85% 30.00 in 1.0 mi North - - 0.00 in Snow Light Snow
10:20 PM -2.2 °F -5.8 °F 85% 29.99 in 0.8 mi North - - N/A Snow Light Snow
10:55 PM -2.4 °F -5.4 °F 87% 29.99 in 0.2 mi North - - 0.00 in Snow Light Snow
11:40 PM -2.2 °F -5.8 °F 85% 29.99 in 0.5 mi North - - N/A Snow Light Snow
11:55 PM -2.6 °F -5.6 °F 87% 30.00 in 0.5 mi North - - 0.00 in Snow Light Snow